Time,TemperatureF,DewpointF,PressureIn,WindDirection,WindDirectionDegrees,WindSpeedMPH,WindSpeedGustMPH,Humidity,HourlyPrecipIn,Conditions,Clouds,dailyrainin,SoftwareType,DateUTC
2013-08-27 00:01:00,66.9,62.2,30.15,SSW,202,0.0,0.0,85,0.00,CLR,,0.00,WeatherDisplay:10.37,2013-08-27 04:01:00,
2013-08-27 00:06:00,66.9,62.9,30.13,NNW,338,0.0,0.0,87,0.00,CLR,,0.00,WeatherDisplay:10.37,2013-08-27 04:06:00,
2013-08-27 00:11:00,66.7,62.7,30.13,SSW,202,0.0,0.0,87,0.00,CLR,,0.00,WeatherDisplay:10.37,2013-08-27 04:11:00,
2013-08-27 00:16:00,66.7,62.7,30.13,WNW,292,0.0,0.0,87,0.00,CLR,,0.00,WeatherDisplay:10.37,2013-08-27 04:16:00,
2013-08-27 00:21:00,66.9,62.6,30.13,WSW,248,0.0,0.0,86,0.00,CLR,,0.00,WeatherDisplay:10.37,2013-08-27 04:21:00,
2013-08-27 00:26:00,66.9,62.9,30.13,SSW,202,0.0,0.0,87,0.00,CLR,,0.00,WeatherDisplay:10.37,2013-08-27 04:26:00,
2013-08-27 00:31:00,66.9,62.9,30.13,SW,225,0.0,0.0,87,0.00,CLR,,0.00,WeatherDisplay:10.37,2013-08-27 04:31:00,
2013-08-27 00:36:00,66.9,62.9,30.13,South,180,0.0,0.0,87,0.00,CLR,,0.00,WeatherDisplay:10.37,2013-08-27 04:36:00,
2013-08-27 00:41:00,66.9,63.2,30.13,South,180,0.0,0.0,88,0.00,CLR,,0.00,WeatherDisplay:10.37,2013-08-27 04:41:00,
2013-08-27 00:46:00,66.9,63.2,30.13,SW,225,0.0,0.0,88,0.00,CLR,,0.00,WeatherDisplay:10.37,2013-08-27 04:46:00,
2013-08-27 00:51:00,66.7,63.0,30.13,WNW,292,0.0,0.0,88,0.00,CLR,,0.00,WeatherDisplay:10.37,2013-08-27 04:51:00,
2013-08-27 00:56:00,66.6,62.9,30.13,West,270,0.0,0.0,88,0.00,CLR,,0.00,WeatherDisplay:10.37,2013-08-27 04:56:00,
2013-08-27 01:01:00,66.6,62.9,30.13,SW,225,0.0,0.0,88,0.00,CLR,,0.00,WeatherDisplay:10.37,2013-08-27 05:01:00,
2013-08-27 01:06:00,66.6,63.3,30.13,West,270,0.0,0.0,89,0.00,CLR,,0.00,WeatherDisplay:10.37,2013-08-27 05:06:00,
2013-08-27 01:11:00,66.6,63.3,30.13,SSW,202,0.0,0.0,89,0.00,CLR,,0.00,WeatherDisplay:10.37,2013-08-27 05:11:00,
2013-08-27 01:16:00,66.6,63.3,30.13,NNE,22,0.0,0.0,89,0.00,CLR,,0.00,WeatherDisplay:10.37,2013-08-27 05:16:00,
2013-08-27 01:21:00,66.6,63.3,30.12,SSW,202,0.0,0.0,89,0.00,CLR,,0.00,WeatherDisplay:10.37,2013-08-27 05:21:00,
2013-08-27 01:26:00,66.6,63.6,30.13,South,180,0.0,0.0,90,0.00,CLR,,0.00,WeatherDisplay:10.37,2013-08-27 05:26:00,
2013-08-27 01:31:00,66.6,63.6,30.13,South,180,0.0,0.0,90,0.00,CLR,,0.00,WeatherDisplay:10.37,2013-08-27 05:31:00,
2013-08-27 01:36:00,66.4,63.7,30.13,WNW,292,0.0,0.0,91,0.00,CLR,,0.00,WeatherDisplay:10.37,2013-08-27 05:36:00,
2013-08-27 01:41:00,66.4,63.7,30.12,SW,225,0.0,0.0,91,0.00,CLR,,0.00,WeatherDisplay:10.37,2013-08-27 05:41:00,
2013-08-27 01:46:00,66.4,63.7,30.13,South,180,0.0,0.0,91,0.00,CLR,,0.00,WeatherDisplay:10.37,2013-08-27 05:46:00,
2013-08-27 01:51:00,66.4,63.7,30.11,SW,225,0.0,0.0,91,0.00,CLR,,0.00,WeatherDisplay:10.37,2013-08-27 05:51:00,
2013-08-27 01:56:00,66.2,63.5,30.13,West,270,0.0,0.0,91,0.00,CLR,,0.00,WeatherDisplay:10.37,2013-08-27 05:56:00,
2013-08-27 02:01:00,66.2,63.5,30.13,West,270,0.0,0.0,91,0.00,CLR,,0.00,WeatherDisplay:10.37,2013-08-27 06:01:00,
2013-08-27 02:06:00,66.2,63.8,30.11,SSW,202,0.0,0.0,92,0.00,CLR,,0.00,WeatherDisplay:10.37,2013-08-27 06:06:00,
2013-08-27 02:11:00,66.2,63.8,30.12,SW,225,0.0,0.0,92,0.00,CLR,,0.00,WeatherDisplay:10.37,2013-08-27 06:11:00,
2013-08-27 02:16:00,66.2,63.8,30.11,SW,225,0.0,0.0,92,0.00,CLR,,0.00,WeatherDisplay:10.37,2013-08-27 06:16:00,
2013-08-27 02:21:00,66.2,63.8,30.12,South,180,0.0,0.0,92,0.00,CLR,,0.00,WeatherDisplay:10.37,2013-08-27 06:21:00,
2013-08-27 02:26:00,66.0,63.6,30.12,South,180,0.0,0.0,92,0.00,CLR,,0.00,WeatherDisplay:10.37,2013-08-27 06:26:00,
2013-08-27 02:31:00,66.0,63.9,30.12,South,180,0.0,0.0,93,0.00,CLR,,0.00,WeatherDisplay:10.37,2013-08-27 06:31:00,
2013-08-27 02:36:00,66.0,63.9,30.09,South,180,0.0,0.0,93,0.00,CLR,,0.00,WeatherDisplay:10.37,2013-08-27 06:36:00,
2013-08-27 02:41:00,65.8,63.7,30.09,South,180,0.0,0.0,93,0.00,CLR,,0.00,WeatherDisplay:10.37,2013-08-27 06:41:00,
2013-08-27 02:46:00,65.8,63.7,30.09,SW,225,0.0,0.0,93,0.00,CLR,,0.00,WeatherDisplay:10.37,2013-08-27 06:46:00,
2013-08-27 02:51:00,65.8,63.7,30.09,SW,225,0.0,0.0,93,0.00,CLR,,0.00,WeatherDisplay:10.37,2013-08-27 06:51:00,
2013-08-27 02:57:00,65.8,63.7,30.09,WSW,248,0.0,0.0,93,0.00,CLR,,0.00,WeatherDisplay:10.37,2013-08-27 06:57:00,
2013-08-27 03:02:00,65.8,63.7,30.09,South,180,0.0,0.0,93,0.00,CLR,,0.00,WeatherDisplay:10.37,2013-08-27 07:02:00,
2013-08-27 03:07:00,65.8,63.7,30.12,South,180,0.0,0.0,93,0.00,CLR,,0.00,WeatherDisplay:10.37,2013-08-27 07:07:00,
2013-08-27 03:12:00,66.0,63.9,30.10,South,180,0.0,0.0,93,0.00,CLR,,0.00,WeatherDisplay:10.37,2013-08-27 07:12:00,
2013-08-27 03:17:00,66.0,63.9,30.10,WSW,248,0.0,0.0,93,0.00,CLR,,0.00,WeatherDisplay:10.37,2013-08-27 07:17:00,
2013-08-27 03:22:00,66.0,63.9,30.10,South,180,0.0,0.0,93,0.00,CLR,,0.00,WeatherDisplay:10.37,2013-08-27 07:22:00,
2013-08-27 03:27:00,66.0,63.9,30.10,South,180,0.0,0.0,93,0.00,CLR,,0.00,WeatherDisplay:10.37,2013-08-27 07:27:00,
2013-08-27 03:32:00,65.8,63.7,30.08,NW,315,0.0,0.0,93,0.00,CLR,,0.00,WeatherDisplay:10.37,2013-08-27 07:32:00,
2013-08-27 03:37:00,65.8,63.7,30.08,South,180,0.0,0.0,93,0.00,CLR,,0.00,WeatherDisplay:10.37,2013-08-27 07:37:00,
2013-08-27 03:42:00,65.8,63.7,30.08,South,180,0.0,0.0,93,0.00,CLR,,0.00,WeatherDisplay:10.37,2013-08-27 07:42:00,
2013-08-27 03:47:00,65.8,63.7,30.08,NW,315,0.0,0.0,93,0.00,CLR,,0.00,WeatherDisplay:10.37,2013-08-27 07:47:00,
2013-08-27 03:52:00,65.5,63.7,30.10,SE,135,5.8,5.8,94,0.00,CLR,,0.00,WeatherDisplay:10.37,2013-08-27 07:52:00,
2013-08-27 03:57:00,65.7,63.9,30.10,South,180,0.0,0.0,94,0.00,CLR,,0.00,WeatherDisplay:10.37,2013-08-27 07:57:00,
2013-08-27 04:02:00,65.8,64.0,30.10,SSW,202,0.0,0.0,94,0.00,CLR,,0.00,WeatherDisplay:10.37,2013-08-27 08:02:00,
2013-08-27 04:07:00,65.8,64.0,30.07,SW,225,0.0,0.0,94,0.00,CLR,,0.00,WeatherDisplay:10.37,2013-08-27 08:07:00,
2013-08-27 04:12:00,65.8,64.0,30.07,SSW,202,0.0,0.0,94,0.00,CLR,,0.00,WeatherDisplay:10.37,2013-08-27 08:12:00,
2013-08-27 04:17:00,65.8,63.7,30.08,SSW,202,0.0,0.0,93,0.00,CLR,,0.00,WeatherDisplay:10.37,2013-08-27 08:17:00,
2013-08-27 04:22:00,65.8,63.7,30.08,SSW,202,0.0,0.0,93,0.00,CLR,,0.00,WeatherDisplay:10.37,2013-08-27 08:22:00,
2013-08-27 04:27:00,65.8,63.7,30.08,ESE,112,0.0,0.0,93,0.00,CLR,,0.00,WeatherDisplay:10.37,2013-08-27 08:27:00,
2013-08-27 04:32:00,65.8,63.7,30.08,SSE,158,0.0,0.0,93,0.00,CLR,,0.00,WeatherDisplay:10.37,2013-08-27 08:32:00,
2013-08-27 04:37:00,65.8,63.7,30.08,South,180,0.0,0.0,93,0.00,CLR,,0.00,WeatherDisplay:10.37,2013-08-27 08:37:00,
2013-08-27 04:42:00,65.8,63.7,30.08,SSE,158,0.0,0.0,93,0.00,CLR,,0.00,WeatherDisplay:10.37,2013-08-27 08:42:00,
2013-08-27 04:47:00,65.8,63.7,30.08,South,180,0.0,0.0,93,0.00,CLR,,0.00,WeatherDisplay:10.37,2013-08-27 08:47:00,
2013-08-27 04:52:00,65.8,63.7,30.08,West,270,0.0,0.0,93,0.00,CLR,,0.00,WeatherDisplay:10.37,2013-08-27 08:52:00,
2013-08-27 04:57:00,65.7,63.6,30.08,South,180,0.0,0.0,93,0.00,CLR,,0.00,WeatherDisplay:10.37,2013-08-27 08:57:00,
2013-08-27 05:02:00,65.7,63.6,30.08,SW,225,0.0,0.0,93,0.00,CLR,,0.00,WeatherDisplay:10.37,2013-08-27 09:02:00,
2013-08-27 05:07:00,65.5,63.4,30.08,South,180,0.0,0.0,93,0.00,CLR,,0.00,WeatherDisplay:10.37,2013-08-27 09:07:00,
2013-08-27 05:12:00,65.5,63.4,30.08,South,180,0.0,0.0,93,0.00,CLR,,0.00,WeatherDisplay:10.37,2013-08-27 09:12:00,
2013-08-27 05:17:00,65.5,63.4,30.08,South,180,0.0,0.0,93,0.00,CLR,,0.00,WeatherDisplay:10.37,2013-08-27 09:17:00,
2013-08-27 05:22:00,65.5,63.7,30.08,South,180,0.0,0.0,94,0.00,CLR,,0.00,WeatherDisplay:10.37,2013-08-27 09:22:00,
2013-08-27 05:27:00,65.5,63.7,30.08,SSW,202,0.0,0.0,94,0.00,CLR,,0.00,WeatherDisplay:10.37,2013-08-27 09:27:00,
2013-08-27 05:32:00,65.5,63.7,30.08,South,180,0.0,0.0,94,0.00,CLR,,0.00,WeatherDisplay:10.37,2013-08-27 09:32:00,
2013-08-27 05:37:00,65.3,63.5,30.08,SW,225,0.0,0.0,94,0.00,CLR,,0.00,WeatherDisplay:10.37,2013-08-27 09:37:00,
2013-08-27 05:42:00,65.1,63.3,30.08,South,180,0.0,0.0,94,0.00,CLR,,0.00,WeatherDisplay:10.37,2013-08-27 09:42:00,
2013-08-27 05:47:00,64.9,63.1,30.08,NNE,22,0.0,0.0,94,0.00,CLR,,0.00,WeatherDisplay:10.37,2013-08-27 09:47:00,
2013-08-27 05:52:00,64.9,63.1,30.08,SSW,202,0.0,0.0,94,0.00,CLR,,0.00,WeatherDisplay:10.37,2013-08-27 09:52:00,
2013-08-27 05:57:00,64.8,63.0,30.08,SW,225,0.0,0.0,94,0.00,CLR,,0.00,WeatherDisplay:10.37,2013-08-27 09:57:00,
2013-08-27 06:02:00,64.8,63.3,30.08,WSW,248,0.0,0.0,95,0.00,CLR,,0.00,WeatherDisplay:10.37,2013-08-27 10:02:00,
2013-08-27 06:07:00,64.8,63.3,30.08,SSE,158,0.0,0.0,95,0.00,CLR,,0.00,WeatherDisplay:10.37,2013-08-27 10:07:00,
2013-08-27 06:12:00,64.8,63.3,30.08,SW,225,0.0,0.0,95,0.00,CLR,,0.00,WeatherDisplay:10.37,2013-08-27 10:12:00,
2013-08-27 06:17:00,64.4,62.9,30.08,WNW,292,0.0,0.0,95,0.00,CLR,,0.00,WeatherDisplay:10.37,2013-08-27 10:17:00,
2013-08-27 06:22:00,64.4,62.9,30.08,SSW,202,0.0,0.0,95,0.00,CLR,,0.00,WeatherDisplay:10.37,2013-08-27 10:22:00,
2013-08-27 06:27:00,64.6,63.1,30.08,South,180,0.0,0.0,95,0.00,CLR,,0.00,WeatherDisplay:10.37,2013-08-27 10:27:00,
2013-08-27 06:32:00,64.4,62.9,30.08,WSW,248,0.0,0.0,95,0.00,CLR,,0.00,WeatherDisplay:10.37,2013-08-27 10:32:00,
2013-08-27 06:37:00,64.4,62.9,30.08,West,270,0.0,0.0,95,0.00,CLR,,0.00,WeatherDisplay:10.37,2013-08-27 10:37:00,
2013-08-27 06:42:00,64.4,62.9,30.08,SSW,202,0.0,0.0,95,0.00,CLR,,0.00,WeatherDisplay:10.37,2013-08-27 10:42:00,
2013-08-27 06:47:00,64.4,62.9,30.08,South,180,0.0,0.0,95,0.00,CLR,,0.00,WeatherDisplay:10.37,2013-08-27 10:47:00,
2013-08-27 06:52:00,64.4,62.9,30.08,WNW,292,0.0,0.0,95,0.00,CLR,,0.00,WeatherDisplay:10.37,2013-08-27 10:52:00,
2013-08-27 06:57:00,64.4,63.2,30.08,WSW,248,0.0,0.0,96,0.00,CLR,,0.00,WeatherDisplay:10.37,2013-08-27 10:57:00,
2013-08-27 07:02:00,64.4,63.2,30.08,SSW,202,0.0,0.0,96,0.00,CLR,,0.00,WeatherDisplay:10.37,2013-08-27 11:02:00,
2013-08-27 07:07:00,64.8,63.6,30.08,SSW,202,0.0,0.0,96,0.00,CLR,,0.00,WeatherDisplay:10.37,2013-08-27 11:07:00,
2013-08-27 07:12:00,64.8,63.6,30.08,South,180,0.0,0.0,96,0.00,CLR,,0.00,WeatherDisplay:10.37,2013-08-27 11:12:00,
2013-08-27 07:17:00,65.1,63.6,30.08,SSW,202,0.0,0.0,95,0.00,CLR,,0.00,WeatherDisplay:10.37,2013-08-27 11:17:00,
2013-08-27 07:22:00,65.3,63.8,30.08,South,180,0.0,0.0,95,0.00,CLR,,0.00,WeatherDisplay:10.37,2013-08-27 11:22:00,
2013-08-27 07:27:00,65.7,64.2,30.08,South,180,0.0,0.0,95,0.00,CLR,,0.00,WeatherDisplay:10.37,2013-08-27 11:27:00,
2013-08-27 07:32:00,65.7,64.2,30.08,SSW,202,0.0,0.0,95,0.00,CLR,,0.00,WeatherDisplay:10.37,2013-08-27 11:32:00,
2013-08-27 07:37:00,66.0,64.8,30.08,South,180,0.0,0.0,96,0.00,CLR,,0.00,WeatherDisplay:10.37,2013-08-27 11:37:00,
2013-08-27 07:42:00,66.2,65.0,30.08,SSW,202,0.0,0.0,96,0.00,CLR,,0.00,WeatherDisplay:10.37,2013-08-27 11:42:00,
2013-08-27 07:47:00,66.4,65.2,30.08,South,180,0.0,0.0,96,0.00,CLR,,0.00,WeatherDisplay:10.37,2013-08-27 11:47:00,
2013-08-27 07:52:00,66.9,65.7,30.08,South,180,0.0,0.0,96,0.00,CLR,,0.00,WeatherDisplay:10.37,2013-08-27 11:52:00,
2013-08-27 07:57:00,67.5,66.3,30.09,South,180,0.0,0.0,96,0.00,CLR,,0.00,WeatherDisplay:10.37,2013-08-27 11:57:00,
2013-08-27 08:02:00,67.5,66.0,30.08,South,180,0.0,0.0,95,0.00,CLR,,0.00,WeatherDisplay:10.37,2013-08-27 12:02:00,
2013-08-27 08:07:00,67.8,65.7,30.08,South,180,0.0,0.0,93,0.00,CLR,,0.00,WeatherDisplay:10.37,2013-08-27 12:07:00,
2013-08-27 08:12:00,68.0,65.9,30.08,East,90,0.0,0.0,93,0.00,CLR,,0.00,WeatherDisplay:10.37,2013-08-27 12:12:00,
2013-08-27 08:17:00,68.5,65.8,30.08,WNW,292,0.0,0.0,91,0.00,CLR,,0.00,WeatherDisplay:10.37,2013-08-27 12:17:00,
2013-08-27 08:22:00,68.9,65.8,30.08,ENE,68,0.0,0.0,90,0.00,CLR,,0.00,WeatherDisplay:10.37,2013-08-27 12:22:00,
2013-08-27 08:27:00,69.4,66.0,30.08,South,180,0.0,0.0,89,0.00,CLR,,0.00,WeatherDisplay:10.37,2013-08-27 12:27:00,
2013-08-27 08:32:00,69.4,66.3,30.08,NNW,338,0.0,0.4,90,0.00,CLR,,0.00,WeatherDisplay:10.37,2013-08-27 12:32:00,
2013-08-27 08:37:00,69.4,66.3,30.08,South,180,0.0,0.0,90,0.00,CLR,,0.00,WeatherDisplay:10.37,2013-08-27 12:37:00,
2013-08-27 08:42:00,69.4,66.3,30.08,South,180,0.0,0.0,90,0.00,CLR,,0.00,WeatherDisplay:10.37,2013-08-27 12:42:00,
2013-08-27 08:47:00,69.4,66.3,30.08,South,180,2.3,0.0,90,0.00,CLR,,0.00,WeatherDisplay:10.37,2013-08-27 12:47:00,
2013-08-27 08:52:00,69.6,66.2,30.07,South,180,0.0,0.0,89,0.00,CLR,,0.00,WeatherDisplay:10.37,2013-08-27 12:52:00,
2013-08-27 08:58:00,70.0,66.9,30.07,SSE,158,0.0,0.0,90,0.00,CLR,,0.00,WeatherDisplay:10.37,2013-08-27 12:58:00,
2013-08-27 09:03:00,70.2,66.8,30.08,South,180,0.0,0.0,89,0.00,CLR,,0.00,WeatherDisplay:10.37,2013-08-27 13:03:00,
2013-08-27 09:08:00,70.3,66.9,30.08,South,180,0.0,0.0,89,0.00,CLR,,0.00,WeatherDisplay:10.37,2013-08-27 13:08:00,
2013-08-27 09:13:00,70.7,67.0,30.08,SSW,202,3.5,3.5,88,0.00,CLR,,0.00,WeatherDisplay:10.37,2013-08-27 13:13:00,
2013-08-27 09:18:00,71.8,66.7,30.08,SSW,202,0.0,0.0,84,0.00,CLR,,0.00,WeatherDisplay:10.37,2013-08-27 13:18:00,
2013-08-27 09:23:00,72.3,66.8,30.08,NNW,338,0.0,0.0,83,0.00,CLR,,0.00,WeatherDisplay:10.37,2013-08-27 13:23:00,
2013-08-27 09:28:00,72.9,67.4,30.08,SSE,158,0.0,0.0,83,0.00,CLR,,0.00,WeatherDisplay:10.37,2013-08-27 13:28:00,
2013-08-27 09:33:00,73.2,67.7,30.08,North,360,3.5,3.5,83,0.00,CLR,,0.00,WeatherDisplay:10.37,2013-08-27 13:33:00,
2013-08-27 09:38:00,73.8,66.1,30.08,NW,315,5.8,5.8,77,0.00,CLR,,0.00,WeatherDisplay:10.37,2013-08-27 13:38:00,
2013-08-27 09:43:00,73.4,67.2,30.08,West,270,2.3,2.3,81,0.00,CLR,,0.00,WeatherDisplay:10.37,2013-08-27 13:43:00,
2013-08-27 09:48:00,73.4,66.1,30.08,NW,315,0.0,0.0,78,0.00,CLR,,0.00,WeatherDisplay:10.37,2013-08-27 13:48:00,
2013-08-27 09:53:00,73.4,66.5,30.08,SE,135,0.0,0.0,79,0.00,CLR,,0.00,WeatherDisplay:10.37,2013-08-27 13:53:00,
2013-08-27 09:58:00,73.9,66.6,30.08,SSE,158,3.5,0.0,78,0.00,CLR,,0.00,WeatherDisplay:10.37,2013-08-27 13:58:00,
2013-08-27 10:03:00,73.9,67.0,30.08,South,180,3.3,3.3,79,0.00,CLR,,0.00,WeatherDisplay:10.37,2013-08-27 14:03:00,
2013-08-27 10:08:00,74.5,65.7,30.09,NNW,338,3.5,3.5,74,0.00,CLR,,0.00,WeatherDisplay:10.37,2013-08-27 14:08:00,
2013-08-27 10:13:00,74.5,64.9,30.08,North,360,0.0,0.0,72,0.00,CLR,,0.00,WeatherDisplay:10.37,2013-08-27 14:13:00,
2013-08-27 10:18:00,74.7,64.7,30.08,NNE,22,3.5,0.0,71,0.00,CLR,,0.00,WeatherDisplay:10.37,2013-08-27 14:18:00,
2013-08-27 10:23:00,75.6,65.1,30.08,NE,45,0.0,0.0,70,0.00,CLR,,0.00,WeatherDisplay:10.37,2013-08-27 14:23:00,
2013-08-27 10:28:00,75.4,65.3,30.08,NNE,22,0.0,0.0,71,0.00,CLR,,0.00,WeatherDisplay:10.37,2013-08-27 14:28:00,
2013-08-27 10:33:00,75.2,65.9,30.08,South,180,0.0,0.0,73,0.00,CLR,,0.00,WeatherDisplay:10.37,2013-08-27 14:33:00,
2013-08-27 10:38:00,75.2,66.7,30.09,NE,45,0.0,0.0,75,0.00,CLR,,0.00,WeatherDisplay:10.37,2013-08-27 14:38:00,
2013-08-27 10:43:00,76.5,66.4,30.07,South,180,4.3,4.3,71,0.00,CLR,,0.00,WeatherDisplay:10.37,2013-08-27 14:43:00,
2013-08-27 10:48:00,76.5,66.4,30.09,NNW,338,4.6,0.0,71,0.00,CLR,,0.00,WeatherDisplay:10.37,2013-08-27 14:48:00,
2013-08-27 10:53:00,76.6,66.9,30.09,SSW,202,0.0,0.0,72,0.00,CLR,,0.00,WeatherDisplay:10.37,2013-08-27 14:53:00,
2013-08-27 10:58:00,77.0,68.5,30.06,NNW,338,0.0,0.0,75,0.00,CLR,,0.00,WeatherDisplay:10.37,2013-08-27 14:58:00,
2013-08-27 11:03:00,77.9,67.7,30.09,NNE,22,0.0,0.0,71,0.00,CLR,,0.00,WeatherDisplay:10.37,2013-08-27 15:03:00,
2013-08-27 11:08:00,77.4,66.8,30.09,SW,225,0.0,0.0,70,0.00,CLR,,0.00,WeatherDisplay:10.37,2013-08-27 15:08:00,
2013-08-27 11:13:00,78.6,66.3,30.07,SSE,158,0.0,0.0,66,0.00,CLR,,0.00,WeatherDisplay:10.37,2013-08-27 15:13:00,
2013-08-27 11:18:00,78.3,66.0,30.07,South,180,5.8,5.8,66,0.00,CLR,,0.00,WeatherDisplay:10.37,2013-08-27 15:18:00,
2013-08-27 11:23:00,78.3,66.4,30.07,South,180,7.4,7.4,67,0.00,CLR,,0.00,WeatherDisplay:10.37,2013-08-27 15:23:00,
2013-08-27 11:28:00,78.3,65.1,30.07,West,270,2.3,0.0,64,0.00,CLR,,0.00,WeatherDisplay:10.37,2013-08-27 15:28:00,
2013-08-27 11:33:00,78.1,66.2,30.07,South,180,7.4,7.4,67,0.00,CLR,,0.00,WeatherDisplay:10.37,2013-08-27 15:33:00,
2013-08-27 11:38:00,78.4,66.1,30.07,South,180,5.8,5.8,66,0.00,CLR,,0.00,WeatherDisplay:10.37,2013-08-27 15:38:00,
2013-08-27 11:43:00,78.6,67.6,30.07,SSE,158,0.0,0.0,69,0.00,CLR,,0.00,WeatherDisplay:10.37,2013-08-27 15:43:00,
2013-08-27 11:48:00,79.0,67.5,30.07,South,180,0.0,0.0,68,0.00,CLR,,0.00,WeatherDisplay:10.37,2013-08-27 15:48:00,
2013-08-27 11:53:00,78.6,66.7,30.07,South,180,8.1,8.1,67,0.00,CLR,,0.00,WeatherDisplay:10.37,2013-08-27 15:53:00,
2013-08-27 11:58:00,78.4,67.0,30.07,South,180,5.8,5.8,68,0.00,CLR,,0.00,WeatherDisplay:10.37,2013-08-27 15:58:00,
2013-08-27 12:03:00,78.6,67.6,30.07,South,180,6.4,6.4,69,0.00,CLR,,0.00,WeatherDisplay:10.37,2013-08-27 16:03:00,
2013-08-27 12:08:00,78.6,67.2,30.07,South,180,4.6,4.6,68,0.00,CLR,,0.00,WeatherDisplay:10.37,2013-08-27 16:08:00,
2013-08-27 12:13:00,78.8,67.3,30.07,South,180,0.0,0.0,68,0.00,CLR,,0.00,WeatherDisplay:10.37,2013-08-27 16:13:00,
2013-08-27 12:18:00,78.4,65.2,30.07,South,180,8.1,8.1,64,0.00,CLR,,0.00,WeatherDisplay:10.37,2013-08-27 16:18:00,
2013-08-27 12:23:00,78.6,66.7,30.06,NNW,338,0.0,0.0,67,0.00,CLR,,0.00,WeatherDisplay:10.37,2013-08-27 16:23:00,
2013-08-27 12:28:00,78.4,65.7,30.06,SSE,158,4.6,0.0,65,0.00,CLR,,0.00,WeatherDisplay:10.37,2013-08-27 16:28:00,
2013-08-27 12:33:00,78.6,65.8,30.06,South,180,7.4,7.4,65,0.00,CLR,,0.00,WeatherDisplay:10.37,2013-08-27 16:33:00,
2013-08-27 12:38:00,78.8,66.5,30.03,South,180,7.4,7.4,66,0.00,CLR,,0.00,WeatherDisplay:10.37,2013-08-27 16:38:00,
2013-08-27 12:43:00,78.8,66.5,30.06,South,180,5.8,5.8,66,0.00,CLR,,0.00,WeatherDisplay:10.37,2013-08-27 16:43:00,
2013-08-27 12:48:00,78.8,67.3,30.06,South,180,2.3,0.0,68,0.00,CLR,,0.00,WeatherDisplay:10.37,2013-08-27 16:48:00,
2013-08-27 12:53:00,79.0,66.2,30.06,South,180,6.9,6.9,65,0.00,CLR,,0.00,WeatherDisplay:10.37,2013-08-27 16:53:00,
2013-08-27 12:58:00,79.0,66.2,30.06,South,180,4.6,4.6,65,0.00,CLR,,0.00,WeatherDisplay:10.37,2013-08-27 16:58:00,
2013-08-27 13:03:00,79.0,66.2,30.06,South,180,8.4,8.4,65,0.00,CLR,,0.00,WeatherDisplay:10.37,2013-08-27 17:03:00,
2013-08-27 13:08:00,79.0,66.2,30.06,South,180,8.4,8.4,65,0.00,CLR,,0.00,WeatherDisplay:10.37,2013-08-27 17:08:00,
2013-08-27 13:13:00,79.0,66.7,30.04,SSW,202,6.9,6.9,66,0.00,CLR,,0.00,WeatherDisplay:10.37,2013-08-27 17:13:00,
2013-08-27 13:18:00,79.0,66.7,30.04,South,180,7.4,7.4,66,0.00,CLR,,0.00,WeatherDisplay:10.37,2013-08-27 17:18:00,
2013-08-27 13:23:00,79.2,67.3,30.04,South,180,5.8,5.8,67,0.00,CLR,,0.00,WeatherDisplay:10.37,2013-08-27 17:23:00,
2013-08-27 13:28:00,79.2,67.3,30.04,South,180,6.9,6.9,67,0.00,CLR,,0.00,WeatherDisplay:10.37,2013-08-27 17:28:00,
2013-08-27 13:33:00,79.2,66.9,30.04,South,180,6.9,6.9,66,0.00,CLR,,0.00,WeatherDisplay:10.37,2013-08-27 17:33:00,
2013-08-27 13:38:00,79.2,66.9,30.04,West,270,5.8,5.8,66,0.00,CLR,,0.00,WeatherDisplay:10.37,2013-08-27 17:38:00,
2013-08-27 13:43:00,79.5,66.7,30.03,South,180,6.9,6.9,65,0.00,CLR,,0.00,WeatherDisplay:10.37,2013-08-27 17:43:00,
2013-08-27 13:48:00,79.5,66.3,30.03,South,180,6.9,6.9,64,0.00,CLR,,0.00,WeatherDisplay:10.37,2013-08-27 17:48:00,
2013-08-27 13:53:00,79.2,66.4,30.04,SSE,158,5.8,5.8,65,0.00,CLR,,0.00,WeatherDisplay:10.37,2013-08-27 17:53:00,
2013-08-27 13:58:00,79.2,66.9,30.03,South,180,6.9,6.9,66,0.00,CLR,,0.00,WeatherDisplay:10.37,2013-08-27 17:58:00,
2013-08-27 14:04:00,79.5,67.1,30.03,South,180,6.9,6.9,66,0.00,CLR,,0.00,WeatherDisplay:10.37,2013-08-27 18:04:00,
2013-08-27 14:09:00,79.3,66.5,30.04,South,180,8.1,8.1,65,0.00,CLR,,0.00,WeatherDisplay:10.37,2013-08-27 18:09:00,
2013-08-27 14:14:00,79.3,66.5,30.04,South,180,6.9,6.9,65,0.00,CLR,,0.00,WeatherDisplay:10.37,2013-08-27 18:14:00,
2013-08-27 14:19:00,79.3,66.1,30.04,South,180,8.4,8.4,64,0.00,CLR,,0.00,WeatherDisplay:10.37,2013-08-27 18:19:00,
2013-08-27 14:24:00,79.3,66.1,30.04,South,180,7.4,7.4,64,0.00,CLR,,0.00,WeatherDisplay:10.37,2013-08-27 18:24:00,
2013-08-27 14:29:00,79.3,66.5,30.04,South,180,5.8,5.8,65,0.00,CLR,,0.00,WeatherDisplay:10.37,2013-08-27 18:29:00,
2013-08-27 14:34:00,79.3,66.5,30.03,SE,135,9.5,9.5,65,0.00,CLR,,0.00,WeatherDisplay:10.37,2013-08-27 18:34:00,
2013-08-27 14:39:00,79.3,64.7,30.04,South,180,5.8,5.8,61,0.00,CLR,,0.00,WeatherDisplay:10.37,2013-08-27 18:39:00,
2013-08-27 14:44:00,79.3,63.7,30.04,SSE,158,6.9,6.9,59,0.00,CLR,,0.00,WeatherDisplay:10.37,2013-08-27 18:44:00,
2013-08-27 14:49:00,79.2,66.0,30.02,SSW,202,8.1,8.1,64,0.00,CLR,,0.00,WeatherDisplay:10.37,2013-08-27 18:49:00,
2013-08-27 14:54:00,79.2,66.4,30.02,South,180,5.8,5.8,65,0.00,CLR,,0.00,WeatherDisplay:10.37,2013-08-27 18:54:00,
2013-08-27 14:59:00,79.2,65.5,30.04,SSW,202,8.1,8.1,63,0.00,CLR,,0.00,WeatherDisplay:10.37,2013-08-27 18:59:00,
2013-08-27 15:04:00,79.0,64.9,30.01,South,180,5.8,5.8,62,0.00,CLR,,0.00,WeatherDisplay:10.37,2013-08-27 19:04:00,
2013-08-27 15:09:00,79.3,65.1,30.01,South,180,8.4,8.4,62,0.00,CLR,,0.00,WeatherDisplay:10.37,2013-08-27 19:09:00,
2013-08-27 15:14:00,79.3,65.6,30.02,South,180,6.9,6.9,63,0.00,CLR,,0.00,WeatherDisplay:10.37,2013-08-27 19:14:00,
2013-08-27 15:19:00,79.2,65.1,30.02,South,180,6.9,6.9,62,0.00,CLR,,0.00,WeatherDisplay:10.37,2013-08-27 19:19:00,
2013-08-27 15:24:00,79.2,65.1,30.02,South,180,6.9,6.9,62,0.00,CLR,,0.00,WeatherDisplay:10.37,2013-08-27 19:24:00,
2013-08-27 15:29:00,79.2,65.1,30.02,SSW,202,6.9,6.9,62,0.00,CLR,,0.00,WeatherDisplay:10.37,2013-08-27 19:29:00,
2013-08-27 15:34:00,79.0,66.2,30.02,South,180,7.4,7.4,65,0.00,CLR,,0.00,WeatherDisplay:10.37,2013-08-27 19:34:00,
2013-08-27 15:39:00,78.8,64.7,30.02,South,180,9.2,9.2,62,0.00,CLR,,0.00,WeatherDisplay:10.37,2013-08-27 19:39:00,
2013-08-27 15:44:00,78.6,65.4,30.00,South,180,6.9,6.9,64,0.00,CLR,,0.00,WeatherDisplay:10.37,2013-08-27 19:44:00,
2013-08-27 15:49:00,78.4,65.7,30.00,SSW,202,6.9,6.9,65,0.00,CLR,,0.00,WeatherDisplay:10.37,2013-08-27 19:49:00,
2013-08-27 15:54:00,78.4,65.7,30.02,South,180,6.9,6.9,65,0.00,CLR,,0.00,WeatherDisplay:10.37,2013-08-27 19:54:00,
2013-08-27 15:59:00,78.4,65.7,30.02,South,180,6.9,6.9,65,0.00,CLR,,0.00,WeatherDisplay:10.37,2013-08-27 19:59:00,
2013-08-27 16:04:00,78.6,65.4,30.00,SW,225,6.9,6.9,64,0.00,CLR,,0.00,WeatherDisplay:10.37,2013-08-27 20:04:00,
2013-08-27 16:09:00,78.4,65.7,30.02,South,180,0.0,0.0,65,0.00,CLR,,0.00,WeatherDisplay:10.37,2013-08-27 20:09:00,
2013-08-27 16:14:00,78.6,64.5,30.00,South,180,8.1,8.1,62,0.00,CLR,,0.00,WeatherDisplay:10.37,2013-08-27 20:14:00,
2013-08-27 16:19:00,78.4,65.7,30.00,South,180,5.8,5.8,65,0.00,CLR,,0.00,WeatherDisplay:10.37,2013-08-27 20:19:00,
2013-08-27 16:24:00,78.1,65.8,30.00,South,180,6.9,6.9,66,0.00,CLR,,0.00,WeatherDisplay:10.37,2013-08-27 20:24:00,
2013-08-27 16:29:00,78.1,64.9,30.00,South,180,6.9,6.9,64,0.00,CLR,,0.00,WeatherDisplay:10.37,2013-08-27 20:29:00,
2013-08-27 16:34:00,78.3,66.0,30.00,South,180,6.9,6.9,66,0.00,CLR,,0.00,WeatherDisplay:10.37,2013-08-27 20:34:00,
2013-08-27 16:39:00,78.3,65.6,30.00,South,180,6.9,6.9,65,0.00,CLR,,0.00,WeatherDisplay:10.37,2013-08-27 20:39:00,
2013-08-27 16:44:00,78.3,66.4,30.00,South,180,5.8,5.8,67,0.00,CLR,,0.00,WeatherDisplay:10.37,2013-08-27 20:44:00,
2013-08-27 16:49:00,78.1,66.2,30.00,SSE,158,6.9,6.9,67,0.00,CLR,,0.00,WeatherDisplay:10.37,2013-08-27 20:49:00,
2013-08-27 16:54:00,77.9,64.3,30.00,South,180,6.9,6.9,63,0.00,CLR,,0.00,WeatherDisplay:10.37,2013-08-27 20:54:00,
2013-08-27 16:59:00,77.7,65.0,30.00,South,180,6.9,6.9,65,0.00,CLR,,0.00,WeatherDisplay:10.37,2013-08-27 20:59:00,
2013-08-27 17:04:00,77.7,65.4,30.00,South,180,4.3,4.3,66,0.00,CLR,,0.00,WeatherDisplay:10.37,2013-08-27 21:04:00,
2013-08-27 17:09:00,78.1,65.4,30.00,South,180,5.8,5.8,65,0.00,CLR,,0.00,WeatherDisplay:10.37,2013-08-27 21:09:00,
2013-08-27 17:15:00,78.1,65.4,30.00,South,180,5.8,5.8,65,0.00,CLR,,0.00,WeatherDisplay:10.37,2013-08-27 21:15:00,
2013-08-27 17:21:00,78.1,64.5,30.00,SW,225,8.1,8.1,63,0.00,CLR,,0.00,WeatherDisplay:10.37,2013-08-27 21:21:00,
2013-08-27 17:26:00,78.1,64.5,30.01,South,180,8.1,8.1,63,0.00,BKN,,0.00,WeatherDisplay:10.37,2013-08-27 21:26:00,
2013-08-27 17:34:00,78.3,65.6,30.01,South,180,6.9,6.9,65,0.00,BKN,,0.00,WeatherDisplay:10.37,2013-08-27 21:34:00,
2013-08-27 17:39:00,78.4,65.7,30.01,South,180,7.4,7.4,65,0.00,BKN,,0.00,WeatherDisplay:10.37,2013-08-27 21:39:00,
2013-08-27 17:45:00,78.3,66.0,30.01,South,180,6.9,6.9,66,0.00,BKN,,0.00,WeatherDisplay:10.37,2013-08-27 21:45:00,
2013-08-27 17:50:00,77.7,66.3,29.99,South,180,6.9,6.9,68,0.00,BKN,,0.00,WeatherDisplay:10.37,2013-08-27 21:50:00,
2013-08-27 17:55:00,77.7,66.3,30.01,South,180,6.9,6.9,68,0.00,BKN,,0.00,WeatherDisplay:10.37,2013-08-27 21:55:00,
2013-08-27 18:00:00,77.9,66.5,30.01,South,180,6.9,6.9,68,0.00,BKN,,0.00,WeatherDisplay:10.37,2013-08-27 22:00:00,
2013-08-27 18:05:00,77.9,65.6,30.01,South,180,8.4,8.4,66,0.00,BKN,,0.00,WeatherDisplay:10.37,2013-08-27 22:05:00,
2013-08-27 18:10:00,77.9,66.1,30.01,South,180,6.9,6.9,67,0.00,BKN,,0.00,WeatherDisplay:10.37,2013-08-27 22:10:00,
2013-08-27 18:15:00,77.7,65.4,29.99,South,180,8.4,8.4,66,0.00,CLR,,0.00,WeatherDisplay:10.37,2013-08-27 22:15:00,
2013-08-27 18:20:00,77.5,65.7,29.99,South,180,6.9,6.9,67,0.00,CLR,,0.00,WeatherDisplay:10.37,2013-08-27 22:20:00,
2013-08-27 18:25:00,77.5,66.1,29.99,South,180,6.4,6.4,68,0.00,CLR,,0.00,WeatherDisplay:10.37,2013-08-27 22:25:00,
2013-08-27 18:30:00,77.5,66.1,29.99,South,180,8.1,8.1,68,0.00,CLR,,0.00,WeatherDisplay:10.37,2013-08-27 22:30:00,
2013-08-27 18:35:00,77.4,66.0,29.99,South,180,5.8,5.8,68,0.00,CLR,,0.00,WeatherDisplay:10.37,2013-08-27 22:35:00,
2013-08-27 18:40:00,77.4,66.4,29.99,South,180,6.9,6.9,69,0.00,CLR,,0.00,WeatherDisplay:10.37,2013-08-27 22:40:00,
2013-08-27 18:45:00,77.4,66.0,29.99,SSE,158,6.9,6.9,68,0.00,CLR,,0.00,WeatherDisplay:10.37,2013-08-27 22:45:00,
2013-08-27 18:50:00,77.4,66.4,29.99,South,180,6.9,6.9,69,0.00,CLR,,0.00,WeatherDisplay:10.37,2013-08-27 22:50:00,
2013-08-27 18:55:00,77.2,67.1,29.99,SSW,202,5.8,5.8,71,0.00,CLR,,0.00,WeatherDisplay:10.37,2013-08-27 22:55:00,
2013-08-27 19:00:00,77.0,67.3,29.99,South,180,5.8,5.8,72,0.00,CLR,,0.00,WeatherDisplay:10.37,2013-08-27 23:00:00,
2013-08-27 19:05:00,76.8,66.7,29.99,South,180,5.8,5.8,71,0.00,CLR,,0.00,WeatherDisplay:10.37,2013-08-27 23:05:00,
2013-08-27 19:10:00,76.8,67.1,29.99,SSE,158,0.0,0.0,72,0.00,CLR,,0.00,WeatherDisplay:10.37,2013-08-27 23:10:00,
2013-08-27 19:15:00,76.6,67.7,30.00,South,180,5.8,5.8,74,0.00,CLR,,0.00,WeatherDisplay:10.37,2013-08-27 23:15:00,
2013-08-27 19:20:00,76.6,67.3,30.00,South,180,0.0,0.0,73,0.00,CLR,,0.00,WeatherDisplay:10.37,2013-08-27 23:20:00,
2013-08-27 19:25:00,76.5,68.0,30.00,South,180,5.8,5.8,75,0.00,CLR,,0.00,WeatherDisplay:10.37,2013-08-27 23:25:00,
2013-08-27 19:30:00,76.5,67.6,30.00,SSE,158,0.0,0.0,74,0.00,CLR,,0.00,WeatherDisplay:10.37,2013-08-27 23:30:00,
2013-08-27 19:35:00,76.5,67.6,30.00,SSE,158,5.8,5.8,74,0.00,CLR,,0.00,WeatherDisplay:10.37,2013-08-27 23:35:00,
2013-08-27 19:40:00,76.6,66.9,30.00,South,180,6.9,6.9,72,0.00,CLR,,0.00,WeatherDisplay:10.37,2013-08-27 23:40:00,
2013-08-27 19:45:00,76.5,67.2,30.00,South,180,0.0,0.0,73,0.00,CLR,,0.00,WeatherDisplay:10.37,2013-08-27 23:45:00,
2013-08-27 19:50:00,76.5,67.2,30.00,South,180,0.0,0.0,73,0.00,CLR,,0.00,WeatherDisplay:10.37,2013-08-27 23:50:00,
2013-08-27 19:55:00,76.5,68.0,30.00,South,180,5.8,5.8,75,0.00,CLR,,0.00,WeatherDisplay:10.37,2013-08-27 23:55:00,
2013-08-27 20:00:00,76.5,67.2,30.00,South,180,5.8,5.8,73,0.00,CLR,,0.00,WeatherDisplay:10.37,2013-08-28 00:00:00,
2013-08-27 20:05:00,76.3,67.0,30.00,SSE,158,5.8,5.8,73,0.00,CLR,,0.00,WeatherDisplay:10.37,2013-08-28 00:05:00,
2013-08-27 20:10:00,76.5,67.6,30.00,South,180,4.6,4.6,74,0.00,CLR,,0.00,WeatherDisplay:10.37,2013-08-28 00:10:00,
2013-08-27 20:15:00,76.5,68.0,30.00,SSE,158,0.0,0.0,75,0.00,CLR,,0.00,WeatherDisplay:10.37,2013-08-28 00:15:00,
2013-08-27 20:20:00,76.5,68.0,30.00,South,180,0.0,0.0,75,0.00,CLR,,0.00,WeatherDisplay:10.37,2013-08-28 00:20:00,
2013-08-27 20:25:00,76.5,68.0,30.00,South,180,0.0,0.0,75,0.00,CLR,,0.00,WeatherDisplay:10.37,2013-08-28 00:25:00,
2013-08-27 20:30:00,76.5,68.0,30.00,South,180,5.8,5.8,75,0.00,CLR,,0.00,WeatherDisplay:10.37,2013-08-28 00:30:00,
2013-08-27 20:35:00,76.5,67.6,30.00,South,180,0.0,0.0,74,0.00,CLR,,0.00,WeatherDisplay:10.37,2013-08-28 00:35:00,
2013-08-27 20:40:00,76.5,68.4,30.00,South,180,0.0,0.0,76,0.00,CLR,,0.00,WeatherDisplay:10.37,2013-08-28 00:40:00,
2013-08-27 20:45:00,76.5,68.4,30.00,South,180,0.0,0.0,76,0.00,CLR,,0.00,WeatherDisplay:10.37,2013-08-28 00:45:00,
2013-08-27 20:50:00,76.3,68.6,30.00,South,180,0.0,0.0,77,0.00,CLR,,0.00,WeatherDisplay:10.37,2013-08-28 00:50:00,
2013-08-27 20:55:00,76.3,68.2,30.00,South,180,0.0,0.0,76,0.00,CLR,,0.00,WeatherDisplay:10.37,2013-08-28 00:55:00,
2013-08-27 21:00:00,76.5,68.7,30.00,South,180,0.0,0.0,77,0.00,CLR,,0.00,WeatherDisplay:10.37,2013-08-28 01:00:00,
2013-08-27 21:05:00,76.3,68.6,30.00,South,180,0.0,0.0,77,0.00,CLR,,0.00,WeatherDisplay:10.37,2013-08-28 01:05:00,
2013-08-27 21:10:00,76.3,67.8,30.00,South,180,0.0,0.0,75,0.00,CLR,,0.00,WeatherDisplay:10.37,2013-08-28 01:10:00,
2013-08-27 21:15:00,76.3,67.8,30.01,South,180,0.0,0.0,75,0.00,CLR,,0.00,WeatherDisplay:10.37,2013-08-28 01:15:00,
2013-08-27 21:20:00,76.3,68.6,30.01,South,180,0.0,0.0,77,0.00,CLR,,0.00,WeatherDisplay:10.37,2013-08-28 01:20:00,
2013-08-27 21:25:00,76.3,68.6,30.01,South,180,0.0,0.0,77,0.00,CLR,,0.00,WeatherDisplay:10.37,2013-08-28 01:25:00,
2013-08-27 21:30:00,76.3,68.2,30.01,South,180,0.0,0.0,76,0.00,CLR,,0.00,WeatherDisplay:10.37,2013-08-28 01:30:00,
2013-08-27 21:35:00,76.3,67.8,30.01,ESE,112,0.0,0.0,75,0.00,CLR,,0.00,WeatherDisplay:10.37,2013-08-28 01:35:00,
2013-08-27 21:41:00,76.3,67.4,30.00,South,180,6.9,0.0,74,0.00,CLR,,0.00,WeatherDisplay:10.37,2013-08-28 01:41:00,
2013-08-27 21:46:00,76.5,67.6,30.01,SSE,158,6.9,6.9,74,0.00,CLR,,0.00,WeatherDisplay:10.37,2013-08-28 01:46:00,
2013-08-27 21:51:00,76.3,67.8,30.00,South,180,5.8,0.0,75,0.00,CLR,,0.00,WeatherDisplay:10.37,2013-08-28 01:51:00,
2013-08-27 21:56:00,76.3,67.4,30.01,South,180,0.0,0.0,74,0.00,CLR,,0.00,WeatherDisplay:10.37,2013-08-28 01:56:00,
2013-08-27 22:01:00,76.3,67.4,30.00,South,180,0.0,0.0,74,0.00,CLR,,0.00,WeatherDisplay:10.37,2013-08-28 02:01:00,
2013-08-27 22:06:00,76.3,67.8,30.01,South,180,0.0,0.0,75,0.00,CLR,,0.00,WeatherDisplay:10.37,2013-08-28 02:06:00,
2013-08-27 22:11:00,76.3,68.2,30.01,South,180,0.0,0.0,76,0.00,CLR,,0.00,WeatherDisplay:10.37,2013-08-28 02:11:00,
2013-08-27 22:16:00,76.3,67.8,30.00,South,180,5.8,0.0,75,0.00,CLR,,0.00,WeatherDisplay:10.37,2013-08-28 02:16:00,
2013-08-27 22:21:00,76.5,67.6,30.00,SSE,158,5.8,5.8,74,0.00,CLR,,0.00,WeatherDisplay:10.37,2013-08-28 02:21:00,
2013-08-27 22:26:00,76.5,68.7,30.01,South,180,0.0,0.0,77,0.00,CLR,,0.00,WeatherDisplay:10.37,2013-08-28 02:26:00,
2013-08-27 22:31:00,76.3,68.2,30.01,South,180,6.9,6.9,76,0.00,CLR,,0.00,WeatherDisplay:10.37,2013-08-28 02:31:00,
2013-08-27 22:36:00,76.3,67.4,30.00,SSE,158,5.8,5.8,74,0.00,CLR,,0.00,WeatherDisplay:10.37,2013-08-28 02:36:00,
2013-08-27 22:41:00,76.3,67.8,30.01,South,180,6.9,6.9,75,0.00,CLR,,0.00,WeatherDisplay:10.37,2013-08-28 02:41:00,
2013-08-27 22:46:00,76.3,68.2,30.01,South,180,0.0,0.0,76,0.00,CLR,,0.00,WeatherDisplay:10.37,2013-08-28 02:46:00,
2013-08-27 22:51:00,76.3,68.6,30.01,South,180,0.0,0.0,77,0.00,CLR,,0.00,WeatherDisplay:10.37,2013-08-28 02:51:00,
2013-08-27 22:56:00,76.1,68.7,30.01,South,180,0.0,0.0,78,0.00,CLR,,0.00,WeatherDisplay:10.37,2013-08-28 02:56:00,
2013-08-27 23:01:00,75.9,68.5,30.01,South,180,0.0,0.0,78,0.00,CLR,,0.00,WeatherDisplay:10.37,2013-08-28 03:01:00,
2013-08-27 23:06:00,75.9,68.5,30.01,South,180,0.0,0.0,78,0.00,CLR,,0.00,WeatherDisplay:10.37,2013-08-28 03:06:00,
2013-08-27 23:11:00,75.9,68.2,30.01,South,180,0.0,0.0,77,0.00,CLR,,0.00,WeatherDisplay:10.37,2013-08-28 03:11:00,
2013-08-27 23:16:00,75.7,68.4,30.01,South,180,0.0,0.0,78,0.00,CLR,,0.00,WeatherDisplay:10.37,2013-08-28 03:16:00,
2013-08-27 23:21:00,75.7,68.4,30.01,South,180,0.0,0.0,78,0.00,CLR,,0.00,WeatherDisplay:10.37,2013-08-28 03:21:00,
2013-08-27 23:26:00,75.7,69.1,30.02,South,180,0.0,0.0,80,0.00,CLR,,0.00,WeatherDisplay:10.37,2013-08-28 03:26:00,
2013-08-27 23:31:00,75.7,68.4,30.02,South,180,0.0,0.0,78,0.00,CLR,,0.00,WeatherDisplay:10.37,2013-08-28 03:31:00,
2013-08-27 23:36:00,75.7,69.1,30.02,South,180,0.0,0.0,80,0.00,CLR,,0.00,WeatherDisplay:10.37,2013-08-28 03:36:00,
2013-08-27 23:41:00,75.7,68.7,30.02,South,180,0.0,0.0,79,0.00,CLR,,0.00,WeatherDisplay:10.37,2013-08-28 03:41:00,
2013-08-27 23:46:00,75.7,69.1,30.02,South,180,0.0,0.0,80,0.00,CLR,,0.00,WeatherDisplay:10.37,2013-08-28 03:46:00,
2013-08-27 23:51:00,75.9,68.5,30.02,South,180,0.0,0.0,78,0.00,CLR,,0.00,WeatherDisplay:10.37,2013-08-28 03:51:00,
2013-08-27 23:56:00,75.9,68.5,30.02,South,180,0.0,0.0,78,0.00,CLR,,0.00,WeatherDisplay:10.37,2013-08-28 03:56:00,